Terminal Aerodrome Forecast
Issued by NWS

Home | Current Version | Previous Version | Text Only | Print | Product List | Glossary On
Versions: 1 2 3 4 5 6 7 8 9 10 11 12 13 14
000
FTUS42 KJAX 230521
TAFCRG
TAF
KCRG 230521Z 2306/2406 05007KT P6SM SCT200
     FM231400 06012KT P6SM SCT040 BKN120
     FM231700 07015G25KT P6SM BKN035
     FM240000 06012KT P6SM BKN025=

USA.gov is the U.S. government's official web portal to all federal, state and local government web resources and services.